(413) Edburga
ephemeris date magn radius delta ra dec elong phase
Today6 Jul 202516.43.329 AU4.062 AU09h49m+25°27'38.6°11.0°
Opposition27 Mar 202615.33.438 AU2.513 AU13h06m+21°05'154.1°7.3°
(413) Edburga - 2025-07-06
astro.vanbuitenen.nl


 
-1 year
-1 month
-1 day
Now
+1 day
+1 month
+1 year

The interactive orbit chart above shows the body's path through the solar system and its position at the given date. Green and blue lines are shown perpendicular to the ecliptic plane: Green if the path is above the ecliptic plane, blue if it is below. (Left-click and drag to rotate the view; Right-click and drag to move the view; Use scroll wheel to zoom in our out.)

The orbital elements of Edburga are:

            e (Eccentricity)                : 0.3422316
            a (Semimajor axis)              : 2.5832863
            i (Inclination)                 : 18.73560
            Ω (Longitude of ascending node) : 103.66970
            ω (Argument of perihelion)      : 252.86205
            M (Mean anomaly)                : 122.20321
            Epoch                           : 2025 May 05

            L (Longitude of perihelion)     : 175.63343
            B (Latitude of perihelion)      : -17.87489
            P (Orbital period in years)     : 4.15            
        

The light curve chart below shows the estimated development of the minor planet's magnitude.


The all-sky chart below shows the path of the minor planet over the same period as the light curve. The current position is marked yellow.





The following chart shows the path of the minor planet in the next few days. The field of view is optimized for (~10x50) binoculars and finderscopes. A more printer-friendly version of the same chart can be found below.




Ephemerides:
Date       Time       RA (2000)    DEC (2000)    delta   radius  elong  phase   PA    magn
2025-07-06 00:00 UT   09 49 36.9   +25 27 37     4.062    3.329   38.6   11.0    95   16.4 
2025-07-06 00:42 UT   09 49 39.1   +25 27 26     4.062    3.329   38.6   11.0    95   16.4 
2025-07-07 00:00 UT   09 50 51.6   +25 21 27     4.072    3.330   38.0   10.8    95   16.4 
2025-07-08 00:00 UT   09 52 06.4   +25 15 17     4.082    3.332   37.4   10.7    95   16.4 
2025-07-09 00:00 UT   09 53 21.4   +25 09 05     4.091    3.333   36.8   10.5    94   16.4 
2025-07-10 00:00 UT   09 54 36.5   +25 02 51     4.101    3.335   36.2   10.4    94   16.4 
2025-07-11 00:00 UT   09 55 51.8   +24 56 37     4.110    3.336   35.6   10.2    94   16.4 
2025-07-12 00:00 UT   09 57 07.1   +24 50 22     4.119    3.338   35.0   10.1    93   16.4 
2025-07-13 00:00 UT   09 58 22.6   +24 44 05     4.129    3.339   34.4    9.9    93   16.4 
2025-07-14 00:00 UT   09 59 38.2   +24 37 47     4.137    3.341   33.8    9.7    93   16.4 
2025-07-15 00:00 UT   10 00 53.9   +24 31 28     4.146    3.342   33.2    9.6    92   16.4 
2025-07-16 00:00 UT   10 02 09.8   +24 25 08     4.155    3.344   32.6    9.4    92   16.4 
2025-07-17 00:00 UT   10 03 25.7   +24 18 47     4.163    3.345   32.0    9.3    92   16.4 
2025-07-18 00:00 UT   10 04 41.8   +24 12 25     4.172    3.346   31.4    9.1    91   16.4 
2025-07-19 00:00 UT   10 05 57.9   +24 06 01     4.180    3.348   30.8    8.9    91   16.4 
2025-07-20 00:00 UT   10 07 14.1   +23 59 37     4.188    3.349   30.2    8.8    90   16.4 
2025-07-21 00:00 UT   10 08 30.5   +23 53 12     4.196    3.351   29.6    8.6    90   16.4 
2025-07-22 00:00 UT   10 09 46.9   +23 46 46     4.204    3.352   29.1    8.5    89   16.4 
2025-07-23 00:00 UT   10 11 03.4   +23 40 19     4.211    3.353   28.5    8.3    89   16.4 
2025-07-24 00:00 UT   10 12 20.0   +23 33 51     4.219    3.355   27.9    8.1    88   16.4 
2025-07-25 00:00 UT   10 13 36.6   +23 27 22     4.226    3.356   27.3    8.0    88   16.4 
2025-07-26 00:00 UT   10 14 53.3   +23 20 53     4.233    3.358   26.8    7.8    87   16.4 
2025-07-27 00:00 UT   10 16 10.1   +23 14 22     4.240    3.359   26.2    7.7    87   16.4 
2025-07-28 00:00 UT   10 17 27.0   +23 07 51     4.247    3.360   25.6    7.5    86   16.4 
2025-07-29 00:00 UT   10 18 43.9   +23 01 20     4.253    3.362   25.1    7.4    85   16.4 
2025-07-30 00:00 UT   10 20 00.8   +22 54 48     4.260    3.363   24.5    7.2    85   16.4 
2025-07-31 00:00 UT   10 21 17.8   +22 48 15     4.266    3.364   24.0    7.0    84   16.4 
2025-08-01 00:00 UT   10 22 34.9   +22 41 41     4.272    3.366   23.4    6.9    83   16.4 
2025-08-02 00:00 UT   10 23 52.0   +22 35 08     4.278    3.367   22.9    6.7    82   16.3 


    Terminology:
            
    delta:  distance between minor planet and earth in AU
    radius: distance between minor planet and sun in AU
    magn:   magnitude (brightness) estimate    
    ra:     right ascension in hours (24h = 360deg)
    dec:    declination in degrees
    elong:  elongation in degrees (angle sun-earth-minor planet)    
    phase:  phase angle in degrees (angle sun-minor planet-earth)        
    AU:     Astronomical Unit (mean distance between earth and sun: 149597870.7 km
    

Orbital elements provided by the MPC (Minor Planet Center).
Calculations by a modified version of AAPlus, a C# implementation of the AA+ project by PJ Naughter from the algorithms presented in the book "Astronomical Algorithms" by Jean Meeus.
NGC2000 dso catalog and star labels from VizieR as provided by the Strasbourg astronomical Data Center.
Tycho2 catalog from the ESO archive.